Dewpoint
52 51 51 50 50 51 51 51 51 51 53 52 52 49 51 51 50 48 47 47 46 46 46 46 46 48 45 40 38 42 50 51 48 54 52 46 46 45 43 43 45 40 42 43 45 48 47
52 51 50 50 50 49 51 51 51 51 52 52 52 49 50 50 49 48 47 46 45 47 46 46 46 46 43 36 39 44 42 45 47 52 50 48 45 47 41 42 43 42 40 41 44 44 44
51 51 51 50 50 49 50 51 51 51 52 52 51 50 49 48 48 47 46 45 46 46 46 46 46 43 41 37 41 45 43 48 49 52 49 50 44 46 42 40 41 39 39 39 38 38 38
51 51 50 50 49 49 48 49 50 51 51 51 51 49 49 47 45 45 46 47 46 47 47 47 46 43 38 41 44 42 44 50 53 53 50 51 46 45 41 40 38 35 37 34 36 37 36
51 51 50 50 49 49 49 48 47 50 51 51 51 51 49 48 46 47 46 47 47 47 46 46 43 41 35 41 38 40 46 47 51 53 52 50 48 43 41 36 34 34 33 33 34 36 36
50 50 49 50 50 49 49 48 48 48 49 50 50 50 49 49 47 48 48 47 46 46 44 44 42 36 36 35 39 45 47 48 49 50 49 47 45 40 39 36 30 31 32 32 32 34 35
50 50 50 50 49 50 49 49 48 48 48 48 49 49 50 48 49 48 46 40 36 34 38 34 33 35 33 38 39 44 47 47 49 48 42 43 39 36 36 34 33 33 30 31 32 33 33
50 49 50 49 49 49 49 49 49 49 48 48 48 49 49 50 48 48 44 38 38 38 33 37 38 37 36 34 38 42 46 45 43 39 42 41 36 37 38 37 33 32 31 29 29 31 32
49 49 49 50 49 49 50 49 49 48 49 48 47 49 48 49 49 43 39 39 42 42 34 36 39 40 42 43 39 41 46 45 40 40 38 35 36 39 38 35 33 31 28 28 26 31 30
49 49 49 49 49 49 49 49 49 49 48 49 48 47 48 49 43 41 39 43 43 43 29 35 37 40 43 44 38 48 49 45 42 39 38 36 37 36 37 35 32 29 28 27 28 29 27
48 48 49 48 49 49 49 49 49 49 48 48 48 48 47 48 42 40 41 43 43 39 11 36 39 46 41 40 40 41 48 44 39 40 38 37 36 36 35 35 33 31 31 30 31 29 28
48 48 48 48 48 48 49 49 49 48 48 48 47 48 47 47 46 43 44 44 42 21 12 33 39 36 36 39 41 42 43 44 43 39 38 38 41 40 39 41 38 35 32 31 31 28 23
47 48 48 48 48 48 49 48 48 48 47 47 47 49 47 47 42 45 44 41 22 21 32 29 37 39 37 36 37 38 38 38 36 33 31 37 37 39 40 37 38 35 29 26 24 21 21
46 47 48 48 47 47 46 47 48 47 47 48 48 49 47 46 46 45 43 29 19 31 30 36 37 37 35 37 37 37 36 34 38 34 32 28 29 36 38 36 35 34 32 23 18 20 20
46 47 47 48 47 47 47 47 47 47 47 48 48 44 44 45 46 45 36 20 23 28 35 36 36 34 33 36 37 36 35 34 37 37 29 31 31 37 38 40 39 37 32 30 23 22 17
45 46 47 47 47 46 47 48 47 46 47 47 41 41 42 47 46 44 31 26 30 36 35 33 31 31 31 33 34 36 36 37 37 40 36 33 30 37 38 39 39 38 36 27 25 20 15
45 46 46 46 46 46 47 47 47 46 47 46 41 38 43 46 45 40 24 26 35 37 34 31 30 29 31 33 33 33 34 35 38 38 39 35 30 34 38 36 34 36 35 33 30 25 19
44 45 45 45 46 46 47 47 47 45 46 42 37 33 44 46 39 39 28 34 37 34 34 33 31 30 28 30 28 29 30 31 33 34 30 34 31 29 32 36 38 37 35 31 29 26 22
44 44 45 45 46 46 47 47 47 45 46 41 36 35 45 43 36 32 34 35 36 34 32 30 30 31 30 28 27 30 31 34 33 32 31 32 28 24 28 32 37 37 37 35 34 29 22
43 43 44 45 45 45 46 46 46 45 46 42 37 34 41 43 38 36 32 33 32 36 34 30 29 30 29 27 27 29 30 34 34 32 38 34 29 24 21 24 30 29 36 36 34 24 25
43 43 45 45 45 45 45 46 46 44 45 40 34 33 36 34 35 34 33 33 32 33 34 31 29 29 28 25 27 28 32 32 33 36 33 29 24 22 27 30 29 29 30 34 34 32 26
43 43 45 44 45 45 45 46 46 45 41 34 31 32 33 32 34 32 33 33 32 33 33 31 29 30 28 26 26 25 30 31 29 32 31 31 23 25 21 27 28 27 28 32 34 35 34
44 43 44 44 44 44 45 45 45 45 39 31 33 33 37 31 31 29 32 34 35 35 35 34 32 32 31 33 33 32 31 30 30 30 29 30 27 21 17 27 25 23 26 27 29 31 33
44 43 44 44 44 44 45 44 45 45 40 33 32 33 29 28 24 27 28 32 33 34 35 36 37 33 33 35 35 30 30 30 30 31 31 30 27 23 17 22 12 24 28 29 27 27 30
44 44 44 44 44 44 44 45 45 45 44 36 35 32 28 22 25 22 23 29 32 34 35 36 39 39 40 36 29 28 28 28 28 30 29 31 28 27 18 17 20 22 29 29 28 27 28
45 45 45 44 43 43 44 45 45 44 45 38 36 36 31 25 23 25 23 27 31 31 33 37 41 41 38 37 33 25 23 24 24 27 31 31 30 25 28 21 17 22 32 31 32 27 33
46 46 46 44 43 42 44 45 44 44 44 40 37 36 32 27 28 28 24 24 29 28 32 36 36 37 37 32 28 26 21 25 25 24 27 29 30 25 26 25 25 25 28 34 26 26 35
46 46 47 45 43 42 44 45 45 44 43 39 37 38 33 28 29 30 29 26 27 26 29 34 36 37 34 30 29 28 23 24 24 25 26 27 26 27 28 26 19 29 35 31 32 37 37
46 46 47 45 43 43 43 44 43 44 44 41 37 40 39 33 30 33 33 33 32 31 27 29 33 36 36 36 33 30 28 27 26 23 28 25 25 23 26 25 27 31 33 37 39 38 37
Lifted_Index
15 16 16 16 15 14 12 10 9 7 5 4 4 4 4 3 2 1 -0 -1 -1 -1 -1 -1 -1 -1 0 1 2 3 3 3 2 1 0 1 1 0 -1 -1 -1 -0 0 0 1 1 2
15 15 16 16 15 14 12 10 9 7 5 4 4 4 4 4 3 1 -0 -1 -1 -2 -2 -2 -1 -1 0 1 2 2 2 2 2 1 0 0 1 0 -0 -1 -1 -0 0 0 1 1 2
15 15 16 16 16 14 12 10 9 7 5 4 4 5 5 5 4 2 0 -1 -2 -2 -2 -2 -2 -1 0 1 1 2 2 1 1 0 -0 0 0 0 0 -0 -0 -0 0 0 1 2 2
15 15 16 16 16 15 13 11 10 7 6 5 5 5 5 6 5 3 1 -0 -1 -2 -2 -2 -1 -0 1 1 2 2 2 1 0 -0 -0 -0 0 0 0 0 0 0 0 1 1 2 2
15 15 16 16 16 15 13 12 10 8 7 5 5 5 6 6 5 4 2 0 -1 -1 -2 -1 -1 0 1 1 2 2 2 1 1 0 0 -0 0 0 0 1 1 1 1 1 1 1 2
15 15 16 16 16 15 14 12 11 9 8 7 6 5 6 5 5 4 3 1 0 -0 -1 -1 0 1 1 1 1 2 2 2 1 0 0 0 1 1 1 1 1 2 2 1 1 1 1
15 16 16 16 16 15 14 13 11 10 9 8 7 6 6 6 5 5 4 3 2 1 1 0 1 1 1 1 1 2 2 2 1 1 0 1 1 1 1 1 2 2 1 1 1 1 1
15 16 16 16 16 16 15 13 12 11 10 9 8 7 7 6 6 6 6 4 3 2 1 1 1 1 1 1 1 2 2 2 1 1 1 1 1 1 1 1 1 1 1 1 1 1 1
15 16 16 17 17 16 15 13 12 11 10 9 9 8 7 7 7 7 7 5 5 3 2 1 1 1 1 1 2 2 2 2 2 1 1 1 1 1 1 1 1 2 1 1 1 1 1
15 16 16 17 17 16 15 14 12 11 10 10 9 9 8 8 8 8 7 7 6 4 2 2 2 1 1 1 1 1 1 2 1 1 1 1 1 1 1 1 1 2 2 2 2 2 2
16 16 16 17 17 16 15 14 13 12 11 10 10 9 8 8 8 8 8 7 6 4 2 2 2 2 2 1 1 1 1 1 1 1 1 1 1 1 1 1 2 2 2 2 2 2 2
16 16 17 17 17 17 16 15 14 12 11 11 10 9 8 7 7 8 8 7 5 3 2 2 2 2 2 2 1 1 1 1 1 1 1 1 1 1 1 1 2 2 2 2 2 2 1
17 17 17 17 17 17 17 16 15 13 12 12 10 8 7 7 7 7 7 6 4 2 2 2 2 1 1 2 2 1 1 1 1 1 1 2 2 2 2 2 2 2 2 2 1 1 1
17 17 17 17 18 18 17 17 16 14 13 12 10 8 7 7 7 7 6 5 3 2 2 2 2 1 1 1 2 2 1 1 1 2 2 2 2 2 2 2 2 2 2 2 1 1 1
17 17 17 17 18 18 18 17 17 15 14 12 10 8 7 6 6 6 5 4 3 3 3 2 2 1 1 1 2 2 2 2 2 2 2 2 2 3 2 2 2 2 2 1 1 1 1
17 17 17 17 18 18 18 17 17 16 14 12 10 7 6 6 6 5 4 4 4 4 3 3 2 2 1 1 1 2 2 2 3 3 3 3 3 3 2 2 2 2 1 1 1 1 1
17 17 17 18 18 18 18 18 18 17 15 12 9 7 6 6 5 4 4 4 4 4 4 3 3 2 2 1 1 2 3 3 3 3 3 3 3 2 2 2 2 2 1 1 1 1 1
17 17 17 18 18 18 18 18 18 18 16 12 9 6 6 5 4 3 3 4 4 4 4 4 3 3 2 2 2 3 3 3 3 3 3 3 2 2 2 2 2 2 1 1 1 1 1
17 17 17 18 18 18 19 19 19 18 16 12 9 6 5 5 4 3 3 3 3 4 4 4 3 3 3 3 3 3 3 3 3 3 2 3 2 2 2 2 2 2 1 1 1 1 1
17 17 17 18 18 18 18 19 19 18 16 13 9 6 5 4 3 3 3 3 3 3 4 4 4 3 3 3 3 3 3 3 3 3 3 3 3 2 2 2 2 2 2 2 1 1 1
17 17 17 17 18 18 18 19 19 19 17 13 10 7 5 4 3 3 2 3 3 3 3 4 4 3 3 3 3 3 3 3 3 3 3 3 3 3 3 3 3 2 2 2 2 2 2
16 16 17 17 18 18 18 18 19 19 18 15 11 8 6 5 3 3 2 2 2 3 3 3 3 3 3 3 3 3 3 3 3 3 3 3 4 3 3 3 3 3 3 3 3 2 2
16 16 17 17 17 18 18 18 19 19 19 17 14 11 8 5 3 3 2 2 2 2 2 3 3 3 3 3 3 3 3 3 3 3 4 4 4 4 3 3 3 2 3 3 3 3 3
16 16 16 17 17 17 17 18 18 19 19 18 16 12 8 5 4 3 2 2 2 2 2 2 2 3 3 3 3 3 3 3 3 3 3 4 4 4 3 3 2 3 3 3 3 4 4
16 16 16 16 17 17 17 17 18 19 19 18 16 12 8 5 5 4 3 3 2 2 2 2 2 2 3 3 3 3 3 3 3 3 3 4 4 4 3 2 2 3 3 3 3 3 3
16 15 15 16 16 17 17 17 17 18 19 18 16 12 8 6 5 6 5 4 4 3 2 2 2 2 2 3 3 3 3 3 3 3 3 4 4 4 3 2 2 3 3 3 3 2 2
15 14 15 15 16 17 17 16 17 17 18 18 16 13 9 6 6 6 6 6 6 4 3 2 2 2 2 3 3 3 3 3 3 3 3 4 4 4 3 2 2 3 3 3 2 2 2
14 13 13 14 16 16 16 16 16 17 18 19 17 13 10 7 7 7 7 7 7 7 5 3 2 2 2 3 3 3 3 3 3 3 3 3 3 3 3 3 3 3 3 3 2 2 2
13 13 13 14 15 16 16 16 16 17 18 19 17 14 11 8 8 8 8 8 8 8 6 4 3 3 3 3 3 3 3 3 3 3 3 3 3 3 4 3 3 3 3 3 2 2 2